Location: Friaudour
(46.0460°N, 1.2873°E)
Time: 10:16:51
(UTC+00:00)

ERS-2 - Pass Details

Date: 14 July 2020
Orbit: 493 x 498 km, 98.5° (Epoch: 05 August)

Event Time Altitude Azimuth Distance (km) Brightness Sun altitude
Rises 02:29:15 0° 135° (SE) 2,571 5.6 -14.4°
Reaches altitude 10° 02:31:34 10° 122° (ESE) 1,692 4.9 -14.2°
Maximum altitude 02:34:33 25° 66° (ENE) 1,050 4.5 -13.9°
Drops below altitude 10° 02:37:34 10° 11° (N) 1,702 5.9 -13.6°
Sets 02:39:53 0° 358° (N) 2,589 6.6 -13.3°
